• In Germany
  • List of Countries
  • For 7 days
  • Water Temperature
  • Satellite Maps
  • Weather Map
  • Weather Widgets
  • user-avatar
    Login

    Hourly Weather Mayrhofen

    Today, 30 April, Sunday

    Time Temperature Precipitation Wind Pressure Humidity
    00:00 -4°C° 0 mm 1 mps 612 mmHg 96%
    01:00 -6°C° 0 mm 2 mps 613 mmHg 95%
    02:00 -6°C° 0 mm 2 mps 613 mmHg 96%
    03:00 -6°C° 0 mm 2 mps 613 mmHg 96%
    04:00 -6°C° 0 mm 2 mps 613 mmHg 96%
    05:00 -4°C° 0 mm 2 mps 613 mmHg 94%
    06:00 -1°C° 0 mm 1 mps 614 mmHg 93%
    07:00 +1°C° 0 mm 1 mps 614 mmHg 89%
    08:00 +2°C° 0 mm 1 mps 614 mmHg 88%
    09:00 +4°C° 0 mm 1 mps 615 mmHg 87%
    10:00 +5°C° 0 mm 1 mps 615 mmHg 86%
    11:00 +5°C° 0 mm 2 mps 614 mmHg 85%
    12:00 +6°C° 0 mm 2 mps 614 mmHg 83%
    13:00 +6°C° 0 mm 2 mps 614 mmHg 82%
    14:00 +6°C° 0 mm 2 mps 614 mmHg 82%
    15:00 +6°C° 0 mm 2 mps 613 mmHg 83%
    16:00 +6°C° 0 mm 2 mps 613 mmHg 83%
    17:00 +5°C° 0 mm 2 mps 613 mmHg 87%
    18:00 +3°C° 0 mm 2 mps 612 mmHg 91%
    19:00 +2°C° 0 mm 2 mps 612 mmHg 94%
    20:00 +1°C° 0 mm 2 mps 612 mmHg 95%
    21:00 -1°C° 0 mm 2 mps 612 mmHg 95%
    22:00 -1°C° 0 mm 2 mps 612 mmHg 96%
    23:00 -2°C° 0 mm 3 mps 611 mmHg 96%

    Tomorrow, 1 May, Monday

    Time Temperature Precipitation Wind Pressure Humidity
    00:00 -2°C° 0 mm 3 mps 611 mmHg 96%
    01:00 -2°C° 0 mm 3 mps 611 mmHg 96%
    02:00 -2°C° 0 mm 3 mps 611 mmHg 95%
    03:00 -4°C° 0 mm 3 mps 610 mmHg 95%
    04:00 -4°C° 0 mm 3 mps 610 mmHg 95%
    05:00 -2°C° 0 mm 2 mps 610 mmHg 92%
    06:00 -1°C° 0 mm 2 mps 611 mmHg 90%
    07:00 +1°C° 0 mm 2 mps 611 mmHg 88%
    08:00 +2°C° 0 mm 2 mps 612 mmHg 84%
    09:00 +4°C° 0 mm 2 mps 612 mmHg 80%
    10:00 +5°C° 0 mm 2 mps 613 mmHg 77%
    11:00 +4°C° 0.8 mm 2 mps 613 mmHg 81%
    12:00 +4°C° 0.8 mm 2 mps 613 mmHg 86%
    13:00 +4°C° 0.8 mm 2 mps 613 mmHg 90%
    14:00 +3°C° 2 mm 2 mps 613 mmHg 92%
    15:00 +2°C° 2 mm 2 mps 613 mmHg 94%
    16:00 +2°C° 2 mm 1 mps 613 mmHg 95%
    17:00 +1°C° 1.5 mm 1 mps 613 mmHg 96%
    18:00 +1°C° 1.5 mm 1 mps 613 mmHg 97%
    19:00 0°C° 1.5 mm 1 mps 613 mmHg 98%
    20:00 -1°C° 1.1 mm 1 mps 613 mmHg 98%
    21:00 -1°C° 1.1 mm 1 mps 614 mmHg 97%
    22:00 -2°C° 1.1 mm 1 mps 614 mmHg 97%
    23:00 -2°C° 0.8 mm 1 mps 614 mmHg 97%

    Day after tomorrow, 2 May, Tuesday

    Time Temperature Precipitation Wind Pressure Humidity
    00:00 -2°C° 0.8 mm 1 mps 614 mmHg 97%
    01:00 -2°C° 0.8 mm 1 mps 614 mmHg 97%
    02:00 -3°C° 0.3 mm 1 mps 614 mmHg 96%
    03:00 -3°C° 0.3 mm 1 mps 614 mmHg 96%
    04:00 -3°C° 0.3 mm 1 mps 614 mmHg 96%
    05:00 -3°C° 0 mm 1 mps 614 mmHg 96%
    06:00 -2°C° 0 mm 1 mps 615 mmHg 95%
    07:00 -1°C° 0 mm 1 mps 615 mmHg 95%
    08:00 +1°C° 0 mm 1 mps 615 mmHg 95%
    09:00 +2°C° 0 mm 1 mps 616 mmHg 94%
    10:00 +3°C° 0 mm 1 mps 616 mmHg 94%
    11:00 +4°C° 0 mm 1 mps 616 mmHg 93%
    12:00 +5°C° 0 mm 1 mps 616 mmHg 92%
    13:00 +4°C° 0 mm 2 mps 616 mmHg 91%
    14:00 +5°C° 0 mm 2 mps 616 mmHg 91%
    15:00 +5°C° 0 mm 2 mps 616 mmHg 90%
    16:00 +5°C° 0 mm 2 mps 616 mmHg 89%
    17:00 +4°C° 0 mm 2 mps 615 mmHg 91%
    18:00 +3°C° 0 mm 1 mps 615 mmHg 94%
    19:00 +2°C° 0 mm 1 mps 614 mmHg 96%
    20:00 +2°C° 0 mm 1 mps 615 mmHg 96%
    21:00 -1°C° 0 mm 2 mps 615 mmHg 96%
    22:00 -1°C° 0 mm 2 mps 615 mmHg 96%
    23:00 -2°C° 0 mm 2 mps 615 mmHg 96%

    3 May, Wednesday

    Time Temperature Precipitation Wind Pressure Humidity
    00:00 -2°C° 0 mm 2 mps 615 mmHg 96%
    01:00 -2°C° 0 mm 2 mps 615 mmHg 96%
    02:00 -2°C° 0.1 mm 2 mps 615 mmHg 96%
    03:00 0°C° 0.1 mm 1 mps 614 mmHg 95%
    04:00 0°C° 0.1 mm 1 mps 614 mmHg 95%
    05:00 +1°C° 0.2 mm 1 mps 615 mmHg 94%
    06:00 +1°C° 0.2 mm 1 mps 615 mmHg 94%
    07:00 +2°C° 0.2 mm 1 mps 615 mmHg 93%
    08:00 +3°C° 0.6 mm 1 mps 615 mmHg 92%
    09:00 +4°C° 0.6 mm 1 mps 616 mmHg 91%
    10:00 +4°C° 0.6 mm 1 mps 616 mmHg 90%
    11:00 +5°C° 0.4 mm 1 mps 616 mmHg 89%
    12:00 +6°C° 0.4 mm 1 mps 616 mmHg 87%
    13:00 +6°C° 0.4 mm 1 mps 616 mmHg 86%
    14:00 +6°C° 0.8 mm 1 mps 616 mmHg 87%
    15:00 +6°C° 0.8 mm 1 mps 615 mmHg 88%
    16:00 +6°C° 0.8 mm 1 mps 615 mmHg 89%
    17:00 +5°C° 1.3 mm 1 mps 615 mmHg 91%
    18:00 +4°C° 1.3 mm 1 mps 615 mmHg 94%
    19:00 +3°C° 1.3 mm 1 mps 614 mmHg 96%
    20:00 +3°C° 1.2 mm 1 mps 614 mmHg 97%
    21:00 +2°C° 1.2 mm 1 mps 614 mmHg 97%
    22:00 +2°C° 1.2 mm 1 mps 614 mmHg 98%
    23:00 0°C° 0.6 mm 0 mps 614 mmHg 97%

    4 May, Thursday

    Time Temperature Precipitation Wind Pressure Humidity
    00:00 0°C° 0.6 mm 0 mps 614 mmHg 97%
    01:00 -1°C° 0.6 mm 0 mps 614 mmHg 97%
    02:00 -1°C° 0.3 mm 0 mps 613 mmHg 97%
    03:00 -1°C° 0.3 mm 0 mps 613 mmHg 97%
    04:00 -2°C° 0.3 mm 0 mps 613 mmHg 97%
    05:00 0°C° 0.2 mm 0 mps 613 mmHg 95%
    06:00 +1°C° 0.2 mm 0 mps 614 mmHg 93%
    07:00 +2°C° 0.2 mm 0 mps 614 mmHg 92%
    08:00 +3°C° 0.2 mm 0 mps 614 mmHg 89%
    09:00 +4°C° 0.2 mm 0 mps 614 mmHg 87%
    10:00 +4°C° 0.2 mm 0 mps 615 mmHg 84%
    11:00 +6°C° 0.5 mm 1 mps 615 mmHg 83%
    12:00 +6°C° 0.5 mm 1 mps 614 mmHg 83%
    13:00 +7°C° 0.5 mm 1 mps 614 mmHg 82%
    14:00 +7°C° 0.9 mm 1 mps 614 mmHg 83%
    15:00 +6°C° 0.9 mm 1 mps 614 mmHg 84%
    16:00 +6°C° 0.9 mm 1 mps 613 mmHg 86%
    17:00 +5°C° 1.3 mm 1 mps 613 mmHg 89%
    18:00 +4°C° 1.3 mm 1 mps 613 mmHg 92%
    19:00 +3°C° 1.3 mm 1 mps 613 mmHg 96%
    20:00 +3°C° 1.1 mm 1 mps 613 mmHg 96%
    21:00 +3°C° 1.1 mm 1 mps 614 mmHg 97%
    22:00 +2°C° 1.1 mm 1 mps 614 mmHg 98%
    23:00 +2°C° 0.7 mm 1 mps 614 mmHg 97%

    5 May, Friday

    Time Temperature Precipitation Wind Pressure Humidity
    00:00 +2°C° 0.7 mm 1 mps 614 mmHg 97%
    01:00 +1°C° 0.7 mm 1 mps 614 mmHg 97%
    02:00 +1°C° 0.4 mm 1 mps 614 mmHg 96%
    03:00 +1°C° 0.4 mm 1 mps 614 mmHg 96%
    04:00 +1°C° 0.4 mm 1 mps 614 mmHg 95%
    05:00 +1°C° 0.2 mm 1 mps 615 mmHg 94%
    06:00 +2°C° 0.2 mm 1 mps 615 mmHg 93%
    07:00 +3°C° 0.2 mm 1 mps 615 mmHg 92%
    08:00 +4°C° 0.1 mm 1 mps 616 mmHg 89%
    09:00 +5°C° 0.1 mm 1 mps 616 mmHg 86%
    10:00 +6°C° 0.1 mm 1 mps 617 mmHg 83%
    11:00 +7°C° 0.1 mm 1 mps 617 mmHg 82%
    12:00 +8°C° 0.1 mm 1 mps 617 mmHg 80%
    13:00 +8°C° 0.1 mm 1 mps 617 mmHg 78%
    14:00 +8°C° 0.2 mm 1 mps 617 mmHg 79%
    15:00 +8°C° 0.2 mm 1 mps 616 mmHg 80%
    16:00 +8°C° 0.2 mm 1 mps 616 mmHg 81%
    17:00 +7°C° 0.1 mm 1 mps 616 mmHg 86%
    18:00 +5°C° 0.1 mm 1 mps 615 mmHg 90%
    19:00 +4°C° 0.1 mm 1 mps 615 mmHg 94%
    20:00 +3°C° 0 mm 1 mps 615 mmHg 95%
    21:00 +2°C° 0 mm 1 mps 615 mmHg 95%
    22:00 0°C° 0 mm 1 mps 614 mmHg 96%
    23:00 0°C° 0 mm 1 mps 614 mmHg 95%
    Show more